Regional Weather Roundup
Issued by NWS

Home | Current Version | Previous Version | Text Only | Print | Product List | Glossary On
Versions: 1 2 3 4 5 6 7 8 9 10 11 12 13 14 15 16 17 18 19 20 21 22 23 24 25 26 27 28 29 30 31 32 33 34 35 36 37 38 39 40 41 42 43 44 45 46 47 48 49 50
000
ASUS44 KOUN 301310
RWROK

WEATHER ROUNDUP FOR OKLAHOMA
NATIONAL WEATHER SERVICE NORMAN OK
800 AM CDT TUE MAY 30 2017

NOTE: "FAIR" INDICATES FEW OR NO CLOUDS BELOW 12,000 FEET WITH NO
      SIGNIFICANT WEATHER AND/OR OBSTRUCTIONS TO VISIBILITY.

OKZ001>007-009>012-014-015-017-301400-
NORTHWEST OKLAHOMA AND THE PANHANDLE

CITY           SKY/WX    TMP DP  RH WIND       PRES   REMARKS
GAGE           CLOUDY    62  57  83 W3        30.14S
GUYMON         SUNNY     56  54  93 W3        30.17F
ENID/WOODRING  CLOUDY    64  57  77 NE12      30.11F
$$

OKZ016-021>023-033>039-044-045-301400-
SOUTHWEST OKLAHOMA

CITY           SKY/WX    TMP DP  RH WIND       PRES   REMARKS
LAWTON/REGL    SUNNY     67  59  75 N7        30.12F
LAWTON/FT SILL MOSUNNY   66  57  72 N9        30.12R
FREDERICK      MOSUNNY   66  53  63 NE6       30.09S
CLINTON        CLOUDY    65  52  62 NE9       30.14F
HOBART         CLOUDY    67  53  61 E12       30.14R
ALTUS AFB      CLOUDY    65  52  62 NE10      30.13R
$$

OKZ018>020-024>031-301400-
CENTRAL OKLAHOMA

CITY           SKY/WX    TMP DP  RH WIND       PRES   REMARKS
OKLAHOMA CITY  MOSUNNY   67  54  63 N14       30.13R
OKC/WILEY POST SUNNY     68  56  65 N13       30.13R
OKC/TINKER AFB SUNNY     67  54  63 N12       30.12R
STILLWATER     SUNNY     69  55  60 N10       30.11R
GUTHRIE        SUNNY     65  57  75 VRB5      30.13R
$$

OKZ008-013-054>072-301400-
NORTHEAST OKLAHOMA

CITY           SKY/WX    TMP DP  RH WIND       PRES   REMARKS
TULSA          CLOUDY    67  59  75 NW9       30.08R
TULSA/JONES    MOSUNNY   70  58  65 CALM      30.10R
PONCA CITY     LGT RAIN  63  56  78 N12       30.13R
BARTLESVILLE   LGT RAIN  61  58  90 CALM      30.13F
MUSKOGEE       SUNNY     68  62  81 CALM      30.11S
$$

OKZ032-040>043-046>053-073>077-301400-
SOUTH CENTRAL/SOUTHEAST OKLAHOMA

CITY           SKY/WX    TMP DP  RH WIND       PRES   REMARKS
ARDMORE/DWNTWN SUNNY     66  59  77 CALM      30.11R
MCALESTER      SUNNY     69  60  73 CALM      30.11R
$$




USA.gov is the U.S. government's official web portal to all federal, state and local government web resources and services.